Time,TemperatureF,DewpointF,PressureIn,WindDirection,WindDirectionDegrees,WindSpeedMPH,WindSpeedGustMPH,Humidity,HourlyPrecipIn,Conditions,Clouds,dailyrainin,SoftwareType,DateUTC
2013-03-06 00:03:00,33.4,5.3,29.79,NE,46,0.0,0.0,30,0.00,,,0.00,VWS V14.01,2013-03-06 08:03:00,
2013-03-06 00:08:00,33.4,5.3,29.76,NE,46,0.0,0.0,30,0.00,,,0.00,VWS V14.01,2013-03-06 08:08:00,
2013-03-06 00:14:00,33.4,5.3,29.76,NE,46,0.0,0.0,30,0.00,,,0.00,VWS V14.01,2013-03-06 08:14:00,
2013-03-06 00:20:00,33.6,5.5,29.76,NE,46,0.0,0.0,30,0.00,,,0.00,VWS V14.01,2013-03-06 08:20:00,
2013-03-06 00:25:00,33.6,5.5,29.76,NE,46,0.0,0.0,30,0.00,,,0.00,VWS V14.01,2013-03-06 08:25:00,
2013-03-06 00:30:00,33.6,5.5,29.76,NE,46,0.0,0.0,30,0.00,,,0.00,VWS V14.01,2013-03-06 08:30:00,
2013-03-06 00:36:00,33.6,5.5,29.76,NE,46,0.0,0.0,30,0.00,,,0.00,VWS V14.01,2013-03-06 08:36:00,
2013-03-06 00:42:00,33.6,5.5,29.76,NE,46,0.0,0.0,30,0.00,,,0.00,VWS V14.01,2013-03-06 08:42:00,
2013-03-06 00:47:00,33.6,5.5,29.76,NE,46,0.0,0.0,30,0.00,,,0.00,VWS V14.01,2013-03-06 08:47:00,
2013-03-06 00:53:00,33.6,5.5,29.76,NE,46,0.0,0.0,30,0.00,,,0.00,VWS V14.01,2013-03-06 08:53:00,
2013-03-06 00:58:00,33.6,5.5,29.76,NE,46,0.0,0.0,30,0.00,,,0.00,VWS V14.01,2013-03-06 08:58:00,
2013-03-06 01:04:00,33.6,5.5,29.76,NE,46,0.0,0.0,30,0.00,,,0.00,VWS V14.01,2013-03-06 09:04:00,
2013-03-06 01:09:00,33.6,5.5,29.73,NE,46,0.0,0.0,30,0.00,,,0.00,VWS V14.01,2013-03-06 09:09:00,
2013-03-06 01:14:00,33.6,5.5,29.73,NE,46,0.0,0.0,30,0.00,,,0.00,VWS V14.01,2013-03-06 09:14:00,
2013-03-06 01:20:00,33.6,5.5,29.73,NE,46,0.0,0.0,30,0.00,,,0.00,VWS V14.01,2013-03-06 09:20:00,
2013-03-06 01:26:00,33.8,5.7,29.73,NE,46,0.0,0.0,30,0.00,,,0.00,VWS V14.01,2013-03-06 09:26:00,
2013-03-06 01:32:00,33.8,5.7,29.73,NE,46,0.0,0.0,30,0.00,,,0.00,VWS V14.01,2013-03-06 09:32:00,
2013-03-06 01:37:00,34.0,5.8,29.73,NE,46,0.0,0.0,30,0.00,,,0.00,VWS V14.01,2013-03-06 09:37:00,
2013-03-06 01:43:00,34.0,5.8,29.73,NE,46,0.0,0.0,30,0.00,,,0.00,VWS V14.01,2013-03-06 09:43:00,
2013-03-06 01:48:00,34.0,5.8,29.73,NE,46,0.0,0.0,30,0.00,,,0.00,VWS V14.01,2013-03-06 09:48:00,
2013-03-06 01:53:00,34.0,5.8,29.73,NE,46,0.0,0.0,30,0.00,,,0.00,VWS V14.01,2013-03-06 09:53:00,
2013-03-06 01:59:00,34.0,5.8,29.73,NE,46,0.0,0.0,30,0.00,,,0.00,VWS V14.01,2013-03-06 09:59:00,
2013-03-06 02:04:00,34.0,5.8,29.73,NE,46,0.0,0.0,30,0.00,,,0.00,VWS V14.01,2013-03-06 10:04:00,
2013-03-06 02:09:00,34.0,5.8,29.70,NE,46,0.0,0.0,30,0.00,,,0.00,VWS V14.01,2013-03-06 10:09:00,
2013-03-06 02:14:00,34.0,5.8,29.70,NE,46,0.0,0.0,30,0.00,,,0.00,VWS V14.01,2013-03-06 10:14:00,
2013-03-06 02:19:00,34.2,6.0,29.70,ENE,64,0.0,0.0,30,0.00,,,0.00,VWS V14.01,2013-03-06 10:19:00,
2013-03-06 02:24:00,34.2,6.0,29.70,East,87,0.0,0.0,30,0.00,,,0.00,VWS V14.01,2013-03-06 10:24:00,
2013-03-06 02:30:00,34.2,6.0,29.70,East,87,0.0,0.0,30,0.00,,,0.00,VWS V14.01,2013-03-06 10:30:00,
2013-03-06 02:35:00,34.0,5.8,29.70,East,87,0.0,0.0,30,0.00,,,0.00,VWS V14.01,2013-03-06 10:35:00,
2013-03-06 02:41:00,34.0,5.8,29.70,East,87,0.0,0.0,30,0.00,,,0.00,VWS V14.01,2013-03-06 10:41:00,
2013-03-06 02:46:00,33.8,5.7,29.70,East,87,0.0,0.0,30,0.00,,,0.00,VWS V14.01,2013-03-06 10:46:00,
2013-03-06 02:52:00,33.8,5.7,29.70,East,87,0.0,0.0,30,0.00,,,0.00,VWS V14.01,2013-03-06 10:52:00,
2013-03-06 02:57:00,33.8,5.7,29.70,East,87,0.0,0.0,30,0.00,,,0.00,VWS V14.01,2013-03-06 10:57:00,
2013-03-06 03:02:00,33.8,5.7,29.70,East,87,0.0,0.0,30,0.00,,,0.00,VWS V14.01,2013-03-06 11:02:00,
2013-03-06 03:08:00,33.8,5.7,29.70,East,87,0.0,0.0,30,0.00,,,0.00,VWS V14.01,2013-03-06 11:08:00,
2013-03-06 03:13:00,34.0,5.8,29.70,East,92,3.6,3.6,30,0.00,,,0.00,VWS V14.01,2013-03-06 11:13:00,
2013-03-06 03:19:00,33.8,5.7,29.70,East,97,4.9,4.9,30,0.00,,,0.00,VWS V14.01,2013-03-06 11:19:00,
2013-03-06 03:24:00,33.8,5.7,29.67,East,85,3.1,4.9,30,0.00,,,0.00,VWS V14.01,2013-03-06 11:24:00,
2013-03-06 03:30:00,33.6,5.5,29.67,ESE,103,0.0,0.0,30,0.00,,,0.00,VWS V14.01,2013-03-06 11:30:00,
2013-03-06 03:35:00,33.6,5.5,29.67,East,84,0.0,0.0,30,0.00,,,0.00,VWS V14.01,2013-03-06 11:35:00,
2013-03-06 03:40:00,33.4,5.3,29.67,East,84,0.0,0.0,30,0.00,,,0.00,VWS V14.01,2013-03-06 11:40:00,
2013-03-06 03:45:00,33.6,5.5,29.67,East,84,0.0,0.0,30,0.00,,,0.00,VWS V14.01,2013-03-06 11:45:00,
2013-03-06 03:51:00,33.6,5.5,29.67,East,84,0.0,0.0,30,0.00,,,0.00,VWS V14.01,2013-03-06 11:51:00,
2013-03-06 03:57:00,33.4,5.3,29.67,East,84,0.0,0.0,30,0.00,,,0.00,VWS V14.01,2013-03-06 11:57:00,
2013-03-06 04:02:00,33.4,5.3,29.67,East,84,0.0,0.0,30,0.00,,,0.00,VWS V14.01,2013-03-06 12:02:00,
2013-03-06 04:08:00,33.4,5.3,29.67,East,84,0.0,0.0,30,0.00,,,0.00,VWS V14.01,2013-03-06 12:08:00,
2013-03-06 04:13:00,33.4,5.3,29.67,East,84,0.0,0.0,30,0.00,,,0.00,VWS V14.01,2013-03-06 12:13:00,
2013-03-06 04:18:00,33.6,5.5,29.67,East,84,0.0,0.0,30,0.00,,,0.00,VWS V14.01,2013-03-06 12:18:00,
2013-03-06 04:24:00,33.6,5.5,29.67,East,84,0.0,0.0,30,0.00,,,0.00,VWS V14.01,2013-03-06 12:24:00,
2013-03-06 04:30:00,33.6,5.5,29.67,East,84,0.0,0.0,30,0.00,,,0.00,VWS V14.01,2013-03-06 12:30:00,
2013-03-06 04:35:00,33.6,5.5,29.67,East,84,0.0,0.0,30,0.00,,,0.00,VWS V14.01,2013-03-06 12:35:00,
2013-03-06 04:41:00,33.6,5.5,29.64,East,84,0.0,0.0,30,0.00,,,0.00,VWS V14.01,2013-03-06 12:41:00,
2013-03-06 04:46:00,33.6,5.5,29.64,East,84,0.0,0.0,30,0.00,,,0.00,VWS V14.01,2013-03-06 12:46:00,
2013-03-06 04:51:00,33.6,5.5,29.64,East,84,0.0,0.0,30,0.00,,,0.00,VWS V14.01,2013-03-06 12:51:00,
2013-03-06 04:56:00,33.6,5.5,29.64,East,84,0.0,0.0,30,0.00,,,0.00,VWS V14.01,2013-03-06 12:56:00,
2013-03-06 05:02:00,33.4,5.3,29.64,East,84,0.0,0.0,30,0.00,,,0.00,VWS V14.01,2013-03-06 13:02:00,
2013-03-06 05:07:00,33.3,5.2,29.64,ESE,122,0.0,0.0,30,0.00,,,0.00,VWS V14.01,2013-03-06 13:07:00,
2013-03-06 05:13:00,33.1,5.0,29.64,ESE,122,0.0,0.0,30,0.00,,,0.00,VWS V14.01,2013-03-06 13:13:00,
2013-03-06 05:18:00,33.1,5.0,29.64,ESE,122,0.0,0.0,30,0.00,,,0.00,VWS V14.01,2013-03-06 13:18:00,
2013-03-06 05:24:00,32.9,4.9,29.64,ESE,122,0.0,0.0,30,0.00,,,0.00,VWS V14.01,2013-03-06 13:24:00,
2013-03-06 05:29:00,32.9,4.9,29.64,ESE,122,0.0,0.0,30,0.00,,,0.00,VWS V14.01,2013-03-06 13:29:00,
2013-03-06 05:34:00,32.9,4.9,29.64,ESE,122,0.0,0.0,30,0.00,,,0.00,VWS V14.01,2013-03-06 13:34:00,
2013-03-06 05:40:00,32.9,4.9,29.64,ESE,122,0.0,0.0,30,0.00,,,0.00,VWS V14.01,2013-03-06 13:40:00,
2013-03-06 05:46:00,32.7,4.7,29.64,ESE,122,0.0,0.0,30,0.00,,,0.00,VWS V14.01,2013-03-06 13:46:00,
2013-03-06 05:51:00,32.7,4.7,29.64,ESE,122,0.0,0.0,30,0.00,,,0.00,VWS V14.01,2013-03-06 13:51:00,
2013-03-06 05:57:00,32.7,4.7,29.64,ESE,122,0.0,0.0,30,0.00,,,0.00,VWS V14.01,2013-03-06 13:57:00,
2013-03-06 06:02:00,32.7,4.7,29.64,ESE,122,0.0,0.0,30,0.00,,,0.00,VWS V14.01,2013-03-06 14:02:00,
2013-03-06 06:08:00,32.7,4.7,29.61,ESE,122,0.0,0.0,30,0.00,,,0.00,VWS V14.01,2013-03-06 14:08:00,
2013-03-06 06:14:00,32.7,4.7,29.61,ESE,122,0.0,0.0,30,0.00,,,0.00,VWS V14.01,2013-03-06 14:14:00,
2013-03-06 06:19:00,32.7,4.7,29.61,ESE,122,0.0,0.0,30,0.00,,,0.00,VWS V14.01,2013-03-06 14:19:00,
2013-03-06 06:25:00,32.7,4.7,29.61,ESE,122,0.0,0.0,30,0.00,,,0.00,VWS V14.01,2013-03-06 14:25:00,
2013-03-06 06:30:00,32.7,4.7,29.61,ESE,122,0.0,0.0,30,0.00,,,0.00,VWS V14.01,2013-03-06 14:30:00,
2013-03-06 06:36:00,32.7,4.7,29.61,ESE,122,0.0,0.0,30,0.00,,,0.00,VWS V14.01,2013-03-06 14:36:00,
2013-03-06 06:42:00,32.7,4.7,29.61,ESE,122,0.0,0.0,30,0.00,,,0.00,VWS V14.01,2013-03-06 14:42:00,
2013-03-06 06:47:00,32.7,4.7,29.61,ESE,122,0.0,0.0,30,0.00,,,0.00,VWS V14.01,2013-03-06 14:47:00,
2013-03-06 06:53:00,32.7,4.7,29.61,ESE,122,0.0,0.0,30,0.00,,,0.00,VWS V14.01,2013-03-06 14:53:00,
2013-03-06 06:58:00,32.7,4.7,29.61,ESE,122,0.0,0.0,30,0.00,,,0.00,VWS V14.01,2013-03-06 14:58:00,
2013-03-06 07:04:00,32.7,4.7,29.61,ESE,122,0.0,0.0,30,0.00,,,0.00,VWS V14.01,2013-03-06 15:04:00,
2013-03-06 07:09:00,32.9,4.9,29.61,ESE,122,0.0,0.0,30,0.00,,,0.00,VWS V14.01,2013-03-06 15:09:00,
2013-03-06 07:14:00,33.1,5.0,29.61,ESE,122,0.0,0.0,30,0.00,,,0.00,VWS V14.01,2013-03-06 15:14:00,
2013-03-06 07:20:00,33.1,5.0,29.61,ESE,122,0.0,0.0,30,0.00,,,0.00,VWS V14.01,2013-03-06 15:20:00,
2013-03-06 07:25:00,33.1,5.0,29.61,ESE,122,0.0,0.0,30,0.00,,,0.00,VWS V14.01,2013-03-06 15:25:00,
2013-03-06 07:30:00,33.3,5.2,29.61,ESE,122,0.0,0.0,30,0.00,,,0.00,VWS V14.01,2013-03-06 15:30:00,
2013-03-06 07:36:00,33.3,5.2,29.61,ESE,122,0.0,0.0,30,0.00,,,0.00,VWS V14.01,2013-03-06 15:36:00,
2013-03-06 07:42:00,33.3,5.2,29.61,ESE,122,0.0,0.0,30,0.00,,,0.00,VWS V14.01,2013-03-06 15:42:00,
2013-03-06 07:47:00,33.3,5.2,29.61,ESE,122,0.0,0.0,30,0.00,,,0.00,VWS V14.01,2013-03-06 15:47:00,
2013-03-06 07:52:00,33.3,5.2,29.61,ESE,122,0.0,0.0,30,0.00,,,0.00,VWS V14.01,2013-03-06 15:52:00,
2013-03-06 07:58:00,33.3,5.2,29.61,ESE,122,0.0,0.0,30,0.00,,,0.00,VWS V14.01,2013-03-06 15:58:00,
2013-03-06 08:03:00,33.4,5.3,29.61,ESE,122,0.0,0.0,30,0.00,,,0.00,VWS V14.01,2013-03-06 16:03:00,
2013-03-06 08:09:00,33.4,5.3,29.61,ESE,122,0.0,0.0,30,0.00,,,0.00,VWS V14.01,2013-03-06 16:09:00,
2013-03-06 08:14:00,33.4,5.3,29.61,ESE,122,0.0,0.0,30,0.00,,,0.00,VWS V14.01,2013-03-06 16:14:00,
2013-03-06 08:20:00,33.4,5.3,29.61,ESE,122,0.0,0.0,30,0.00,,,0.00,VWS V14.01,2013-03-06 16:20:00,
2013-03-06 08:25:00,33.6,5.5,29.61,ESE,122,0.0,0.0,30,0.00,,,0.00,VWS V14.01,2013-03-06 16:25:00,
2013-03-06 08:30:00,33.6,5.5,29.61,ESE,122,0.0,0.0,30,0.00,,,0.00,VWS V14.01,2013-03-06 16:30:00,
2013-03-06 08:35:00,33.6,5.5,29.61,ESE,121,0.0,0.0,30,0.00,,,0.00,VWS V14.01,2013-03-06 16:35:00,
2013-03-06 08:41:00,33.8,5.7,29.61,ESE,122,0.0,0.0,30,0.00,,,0.00,VWS V14.01,2013-03-06 16:41:00,
2013-03-06 08:46:00,33.8,5.7,29.61,ESE,122,0.0,0.0,30,0.00,,,0.00,VWS V14.01,2013-03-06 16:46:00,
2013-03-06 08:51:00,33.8,5.7,29.61,ESE,121,0.0,0.0,30,0.00,,,0.00,VWS V14.01,2013-03-06 16:51:00,
2013-03-06 08:57:00,34.0,5.8,29.58,ESE,122,0.0,0.0,30,0.00,,,0.00,VWS V14.01,2013-03-06 16:57:00,
2013-03-06 09:03:00,34.0,5.8,29.58,East,95,0.0,0.0,30,0.00,,,0.00,VWS V14.01,2013-03-06 17:03:00,
2013-03-06 09:09:00,34.3,6.1,29.58,ENE,78,0.0,0.0,30,0.00,,,0.00,VWS V14.01,2013-03-06 17:09:00,
2013-03-06 09:14:00,34.3,6.1,29.58,NE,55,3.6,3.6,30,0.00,,,0.00,VWS V14.01,2013-03-06 17:14:00,
2013-03-06 09:19:00,34.3,6.1,29.58,ENE,73,0.0,0.0,30,0.00,,,0.00,VWS V14.01,2013-03-06 17:19:00,
2013-03-06 09:25:00,34.5,6.3,29.58,ENE,73,0.0,0.0,30,0.00,,,0.00,VWS V14.01,2013-03-06 17:25:00,
2013-03-06 09:31:00,34.7,6.4,29.58,East,81,2.7,4.5,30,0.00,,,0.00,VWS V14.01,2013-03-06 17:31:00,
2013-03-06 09:36:00,35.1,6.8,29.58,East,79,2.7,4.0,30,0.00,,,0.00,VWS V14.01,2013-03-06 17:36:00,
2013-03-06 09:41:00,34.9,6.6,29.58,East,79,0.0,0.0,30,0.00,,,0.00,VWS V14.01,2013-03-06 17:41:00,
2013-03-06 09:46:00,34.9,6.6,29.58,East,79,0.0,0.0,30,0.00,,,0.00,VWS V14.01,2013-03-06 17:46:00,
2013-03-06 09:51:00,34.9,6.6,29.58,East,79,0.0,0.0,30,0.00,,,0.00,VWS V14.01,2013-03-06 17:51:00,
2013-03-06 09:57:00,35.1,6.8,29.58,East,79,0.0,0.0,30,0.00,,,0.00,VWS V14.01,2013-03-06 17:57:00,
2013-03-06 10:02:00,35.2,6.9,29.58,East,79,0.0,0.0,30,0.00,,,0.00,VWS V14.01,2013-03-06 18:02:00,
2013-03-06 10:07:00,35.4,7.1,29.58,East,79,0.0,0.0,30,0.00,,,0.00,VWS V14.01,2013-03-06 18:07:00,
2013-03-06 10:12:00,35.4,7.1,29.58,East,79,0.0,0.0,30,0.00,,,0.00,VWS V14.01,2013-03-06 18:12:00,
2013-03-06 10:18:00,35.4,7.1,29.58,East,79,0.0,0.0,30,0.00,,,0.00,VWS V14.01,2013-03-06 18:18:00,
2013-03-06 10:23:00,35.6,7.2,29.58,East,79,0.0,0.0,30,0.00,,,0.00,VWS V14.01,2013-03-06 18:23:00,
2013-03-06 10:29:00,35.6,7.2,29.58,East,88,0.0,0.0,30,0.00,,,0.00,VWS V14.01,2013-03-06 18:29:00,
2013-03-06 10:35:00,35.8,7.4,29.58,ESE,102,0.0,0.0,30,0.00,,,0.00,VWS V14.01,2013-03-06 18:35:00,
2013-03-06 10:40:00,36.0,7.6,29.58,East,85,3.1,3.1,30,0.00,,,0.00,VWS V14.01,2013-03-06 18:40:00,
2013-03-06 10:47:00,36.1,7.7,29.58,East,83,2.7,2.7,30,0.00,,,0.00,VWS V14.01,2013-03-06 18:47:00,
2013-03-06 10:52:00,36.3,7.9,29.58,East,85,2.7,2.7,30,0.00,,,0.00,VWS V14.01,2013-03-06 18:52:00,
2013-03-06 10:57:00,36.3,7.9,29.58,East,85,0.0,0.0,30,0.00,,,0.00,VWS V14.01,2013-03-06 18:57:00,
2013-03-06 11:02:00,36.7,8.2,29.58,East,88,3.6,3.6,30,0.00,,,0.00,VWS V14.01,2013-03-06 19:02:00,
2013-03-06 11:08:00,36.7,8.2,29.58,East,88,3.6,3.6,30,0.00,,,0.00,VWS V14.01,2013-03-06 19:08:00,
2013-03-06 11:13:00,36.9,8.3,29.58,East,92,4.0,4.0,30,0.00,,,0.00,VWS V14.01,2013-03-06 19:13:00,
2013-03-06 11:18:00,37.0,8.5,29.58,East,89,3.6,3.6,30,0.00,,,0.00,VWS V14.01,2013-03-06 19:18:00,
2013-03-06 11:23:00,37.4,8.1,29.58,East,98,3.1,4.0,29,0.00,,,0.00,VWS V14.01,2013-03-06 19:23:00,
2013-03-06 11:29:00,37.8,8.4,29.58,East,88,2.2,3.6,29,0.00,,,0.00,VWS V14.01,2013-03-06 19:29:00,
2013-03-06 11:34:00,37.9,8.5,29.58,East,79,3.1,3.1,29,0.00,,,0.00,VWS V14.01,2013-03-06 19:34:00,
2013-03-06 11:39:00,37.9,8.5,29.58,East,85,3.6,3.6,29,0.00,,,0.00,VWS V14.01,2013-03-06 19:39:00,
2013-03-06 11:45:00,37.8,8.4,29.58,East,86,4.0,4.0,29,0.00,,,0.00,VWS V14.01,2013-03-06 19:45:00,
2013-03-06 11:51:00,38.1,8.7,29.58,East,95,2.7,2.7,29,0.00,,,0.00,VWS V14.01,2013-03-06 19:51:00,
2013-03-06 11:56:00,38.5,9.0,29.58,East,91,6.3,6.3,29,0.00,,,0.00,VWS V14.01,2013-03-06 19:56:00,
2013-03-06 12:01:00,38.5,9.0,29.58,ENE,73,3.1,3.6,29,0.00,,,0.00,VWS V14.01,2013-03-06 20:01:00,
2013-03-06 12:07:00,38.8,9.3,29.58,ENE,68,5.4,5.4,29,0.00,,,0.00,VWS V14.01,2013-03-06 20:07:00,
2013-03-06 12:12:00,39.2,9.6,29.58,ENE,76,3.6,4.0,29,0.00,,,0.00,VWS V14.01,2013-03-06 20:12:00,
2013-03-06 12:17:00,39.2,9.6,29.58,East,92,2.7,3.1,29,0.00,,,0.00,VWS V14.01,2013-03-06 20:17:00,
2013-03-06 12:23:00,39.0,9.5,29.58,East,87,4.0,4.0,29,0.00,,,0.00,VWS V14.01,2013-03-06 20:23:00,
2013-03-06 12:29:00,39.0,9.5,29.58,East,91,5.4,5.4,29,0.00,,,0.00,VWS V14.01,2013-03-06 20:29:00,
2013-03-06 12:34:00,39.4,9.8,29.58,East,91,3.6,4.0,29,0.00,,,0.00,VWS V14.01,2013-03-06 20:34:00,
2013-03-06 12:39:00,39.6,9.9,29.58,ENE,76,5.4,5.4,29,0.00,,,0.00,VWS V14.01,2013-03-06 20:39:00,
2013-03-06 12:44:00,39.6,9.9,29.58,East,82,4.0,4.0,29,0.00,,,0.00,VWS V14.01,2013-03-06 20:44:00,
2013-03-06 12:50:00,39.4,9.8,29.58,East,79,3.1,3.1,29,0.00,,,0.00,VWS V14.01,2013-03-06 20:50:00,
2013-03-06 12:55:00,39.2,9.6,29.58,East,99,0.0,0.0,29,0.00,,,0.00,VWS V14.01,2013-03-06 20:55:00,
2013-03-06 13:01:00,39.2,9.6,29.58,East,90,3.1,3.1,29,0.00,,,0.00,VWS V14.01,2013-03-06 21:01:00,
2013-03-06 13:07:00,39.2,9.6,29.58,East,81,2.7,2.7,29,0.00,,,0.00,VWS V14.01,2013-03-06 21:07:00,
2013-03-06 13:12:00,39.2,9.6,29.58,East,99,3.6,3.6,29,0.00,,,0.00,VWS V14.01,2013-03-06 21:12:00,
2013-03-06 13:17:00,39.4,9.8,29.58,East,82,3.6,3.6,29,0.00,,,0.00,VWS V14.01,2013-03-06 21:17:00,
2013-03-06 13:23:00,39.4,9.8,29.58,NE,44,4.0,4.0,29,0.00,,,0.00,VWS V14.01,2013-03-06 21:23:00,
2013-03-06 13:28:00,39.6,9.9,29.58,NE,44,0.0,0.0,29,0.00,,,0.00,VWS V14.01,2013-03-06 21:28:00,
2013-03-06 13:34:00,39.2,9.6,29.58,East,98,4.0,4.5,29,0.00,,,0.00,VWS V14.01,2013-03-06 21:34:00,
2013-03-06 13:39:00,38.5,9.0,29.58,ESE,112,4.5,4.5,29,0.00,,,0.00,VWS V14.01,2013-03-06 21:39:00,
2013-03-06 13:45:00,38.3,8.8,29.58,East,84,4.9,5.8,29,0.00,,,0.00,VWS V14.01,2013-03-06 21:45:00,
2013-03-06 13:51:00,38.5,9.0,29.58,East,93,4.9,4.9,29,0.00,,,0.00,VWS V14.01,2013-03-06 21:51:00,
2013-03-06 13:57:00,38.7,9.2,29.58,ESE,107,3.6,4.0,29,0.00,,,0.00,VWS V14.01,2013-03-06 21:57:00,
2013-03-06 14:02:00,38.7,9.2,29.58,East,80,0.0,4.0,29,0.00,,,0.00,VWS V14.01,2013-03-06 22:02:00,
2013-03-06 14:07:00,38.7,9.2,29.58,East,86,3.6,4.9,29,0.00,,,0.00,VWS V14.01,2013-03-06 22:07:00,
2013-03-06 14:13:00,38.7,9.2,29.58,East,86,3.6,3.6,29,0.00,,,0.00,VWS V14.01,2013-03-06 22:13:00,
2013-03-06 14:19:00,38.7,9.2,29.58,East,89,2.7,2.7,29,0.00,,,0.00,VWS V14.01,2013-03-06 22:19:00,
2013-03-06 14:24:00,38.7,9.2,29.58,ENE,69,0.0,0.0,29,0.00,,,0.00,VWS V14.01,2013-03-06 22:24:00,
2013-03-06 14:30:00,38.7,9.2,29.58,ENE,74,4.9,4.9,29,0.00,,,0.00,VWS V14.01,2013-03-06 22:30:00,
2013-03-06 14:36:00,38.7,9.2,29.58,ENE,74,0.0,0.0,29,0.00,,,0.00,VWS V14.01,2013-03-06 22:36:00,
2013-03-06 14:41:00,39.0,9.5,29.58,ENE,74,0.0,0.0,29,0.00,,,0.00,VWS V14.01,2013-03-06 22:41:00,
2013-03-06 14:46:00,39.0,9.5,29.58,East,96,2.7,2.7,29,0.00,,,0.00,VWS V14.01,2013-03-06 22:46:00,
2013-03-06 14:52:00,39.0,9.5,29.58,East,96,0.0,0.0,29,0.00,,,0.00,VWS V14.01,2013-03-06 22:52:00,
2013-03-06 14:57:00,38.5,9.0,29.58,East,98,2.7,2.7,29,0.00,,,0.00,VWS V14.01,2013-03-06 22:57:00,
2013-03-06 15:03:00,38.3,8.8,29.58,ESE,110,4.0,4.0,29,0.00,,,0.00,VWS V14.01,2013-03-06 23:03:00,
2013-03-06 15:08:00,38.5,9.0,29.58,East,101,2.7,2.7,29,0.00,,,0.00,VWS V14.01,2013-03-06 23:08:00,
2013-03-06 15:14:00,38.3,8.8,29.58,East,101,0.0,2.7,29,0.00,,,0.00,VWS V14.01,2013-03-06 23:14:00,
2013-03-06 15:20:00,38.5,9.0,29.58,East,101,0.0,0.0,29,0.00,,,0.00,VWS V14.01,2013-03-06 23:20:00,
2013-03-06 15:25:00,38.7,9.2,29.58,East,101,0.0,0.0,29,0.00,,,0.00,VWS V14.01,2013-03-06 23:25:00,
2013-03-06 15:30:00,38.7,9.2,29.58,East,101,0.0,0.0,29,0.00,,,0.00,VWS V14.01,2013-03-06 23:30:00,
2013-03-06 15:36:00,38.7,9.2,29.58,East,101,0.0,0.0,29,0.00,,,0.00,VWS V14.01,2013-03-06 23:36:00,
2013-03-06 15:41:00,38.8,9.3,29.58,East,101,0.0,0.0,29,0.00,,,0.00,VWS V14.01,2013-03-06 23:41:00,
2013-03-06 15:46:00,38.7,9.2,29.58,East,101,0.0,0.0,29,0.00,,,0.00,VWS V14.01,2013-03-06 23:46:00,
2013-03-06 15:52:00,38.8,9.3,29.58,East,101,0.0,0.0,29,0.00,,,0.00,VWS V14.01,2013-03-06 23:52:00,
2013-03-06 15:57:00,39.0,9.5,29.58,East,101,0.0,0.0,29,0.00,,,0.00,VWS V14.01,2013-03-06 23:57:00,
2013-03-06 16:02:00,39.0,9.5,29.58,East,101,0.0,0.0,29,0.00,,,0.00,VWS V14.01,2013-03-07 00:02:00,
2013-03-06 16:08:00,39.0,9.5,29.58,East,101,0.0,0.0,29,0.00,,,0.00,VWS V14.01,2013-03-07 00:08:00,
2013-03-06 16:13:00,39.2,9.6,29.58,East,101,0.0,0.0,29,0.00,,,0.00,VWS V14.01,2013-03-07 00:13:00,
2013-03-06 16:19:00,39.2,9.6,29.58,East,101,0.0,0.0,29,0.00,,,0.00,VWS V14.01,2013-03-07 00:19:00,
2013-03-06 16:24:00,39.0,9.5,29.58,East,101,0.0,0.0,29,0.00,,,0.00,VWS V14.01,2013-03-07 00:24:00,
2013-03-06 16:30:00,38.8,9.3,29.58,East,101,0.0,0.0,29,0.00,,,0.00,VWS V14.01,2013-03-07 00:30:00,
2013-03-06 16:36:00,38.8,9.3,29.58,East,101,0.0,0.0,29,0.00,,,0.00,VWS V14.01,2013-03-07 00:36:00,
2013-03-06 16:41:00,38.7,9.2,29.61,East,101,0.0,0.0,29,0.00,,,0.00,VWS V14.01,2013-03-07 00:41:00,
2013-03-06 16:46:00,38.7,9.2,29.61,East,101,0.0,0.0,29,0.00,,,0.00,VWS V14.01,2013-03-07 00:46:00,
2013-03-06 16:51:00,38.7,9.2,29.61,East,101,0.0,0.0,29,0.00,,,0.00,VWS V14.01,2013-03-07 00:51:00,
2013-03-06 16:57:00,38.7,9.2,29.61,East,101,0.0,0.0,29,0.00,,,0.00,VWS V14.01,2013-03-07 00:57:00,
2013-03-06 17:02:00,38.7,9.2,29.61,East,101,0.0,0.0,29,0.00,,,0.00,VWS V14.01,2013-03-07 01:02:00,
2013-03-06 17:07:00,38.7,9.2,29.61,East,101,0.0,0.0,29,0.00,,,0.00,VWS V14.01,2013-03-07 01:07:00,
2013-03-06 17:12:00,38.5,9.0,29.61,East,101,0.0,0.0,29,0.00,,,0.00,VWS V14.01,2013-03-07 01:12:00,
2013-03-06 17:17:00,38.5,9.0,29.61,East,101,0.0,0.0,29,0.00,,,0.00,VWS V14.01,2013-03-07 01:17:00,
2013-03-06 17:23:00,38.5,9.0,29.61,East,101,0.0,0.0,29,0.00,,,0.00,VWS V14.01,2013-03-07 01:23:00,
2013-03-06 17:28:00,38.5,9.0,29.61,East,101,0.0,0.0,29,0.00,,,0.00,VWS V14.01,2013-03-07 01:28:00,
2013-03-06 17:34:00,38.3,8.8,29.61,East,101,0.0,0.0,29,0.00,,,0.00,VWS V14.01,2013-03-07 01:34:00,
2013-03-06 17:40:00,38.1,8.7,29.61,East,101,0.0,0.0,29,0.00,,,0.00,VWS V14.01,2013-03-07 01:40:00,
2013-03-06 17:45:00,38.1,8.7,29.61,East,101,0.0,0.0,29,0.00,,,0.00,VWS V14.01,2013-03-07 01:45:00,
2013-03-06 17:50:00,38.1,8.7,29.61,East,101,0.0,0.0,29,0.00,,,0.00,VWS V14.01,2013-03-07 01:50:00,
2013-03-06 17:55:00,38.1,8.7,29.61,East,101,0.0,0.0,29,0.00,,,0.00,VWS V14.01,2013-03-07 01:55:00,
2013-03-06 18:01:00,37.9,8.5,29.61,East,101,0.0,0.0,29,0.00,,,0.00,VWS V14.01,2013-03-07 02:01:00,
2013-03-06 18:06:00,37.6,8.2,29.61,East,101,0.0,0.0,29,0.00,,,0.00,VWS V14.01,2013-03-07 02:06:00,
2013-03-06 18:12:00,37.4,8.1,29.61,East,101,0.0,0.0,29,0.00,,,0.00,VWS V14.01,2013-03-07 02:12:00,
2013-03-06 18:18:00,37.2,8.6,29.61,East,101,0.0,0.0,30,0.00,,,0.00,VWS V14.01,2013-03-07 02:18:00,
2013-03-06 18:23:00,37.0,8.5,29.64,East,101,0.0,0.0,30,0.00,,,0.00,VWS V14.01,2013-03-07 02:23:00,
2013-03-06 18:30:00,37.0,8.5,29.64,East,101,0.0,0.0,30,0.00,,,0.00,VWS V14.01,2013-03-07 02:30:00,
2013-03-06 18:36:00,37.0,8.5,29.64,East,101,0.0,0.0,30,0.00,,,0.00,VWS V14.01,2013-03-07 02:36:00,
2013-03-06 18:41:00,37.0,8.5,29.64,East,101,0.0,0.0,30,0.00,,,0.00,VWS V14.01,2013-03-07 02:41:00,
2013-03-06 18:46:00,37.0,8.5,29.64,East,101,0.0,0.0,30,0.00,,,0.00,VWS V14.01,2013-03-07 02:46:00,
2013-03-06 18:52:00,37.0,8.5,29.64,East,101,0.0,0.0,30,0.00,,,0.00,VWS V14.01,2013-03-07 02:52:00,
2013-03-06 18:57:00,36.9,8.3,29.64,East,101,0.0,0.0,30,0.00,,,0.00,VWS V14.01,2013-03-07 02:57:00,
2013-03-06 19:03:00,36.9,8.3,29.64,East,101,0.0,0.0,30,0.00,,,0.00,VWS V14.01,2013-03-07 03:03:00,
2013-03-06 19:09:00,36.9,8.3,29.64,East,101,0.0,0.0,30,0.00,,,0.00,VWS V14.01,2013-03-07 03:09:00,
2013-03-06 19:14:00,36.9,8.3,29.64,East,101,0.0,0.0,30,0.00,,,0.00,VWS V14.01,2013-03-07 03:14:00,
2013-03-06 19:20:00,36.7,8.2,29.64,East,101,0.0,0.0,30,0.00,,,0.00,VWS V14.01,2013-03-07 03:20:00,
2013-03-06 19:25:00,36.7,8.2,29.64,East,101,0.0,0.0,30,0.00,,,0.00,VWS V14.01,2013-03-07 03:25:00,
2013-03-06 19:30:00,36.7,8.2,29.64,East,101,0.0,0.0,30,0.00,,,0.00,VWS V14.01,2013-03-07 03:30:00,
2013-03-06 19:36:00,36.7,8.2,29.64,East,101,0.0,0.0,30,0.00,,,0.00,VWS V14.01,2013-03-07 03:36:00,
2013-03-06 19:41:00,36.7,8.2,29.64,East,101,0.0,0.0,30,0.00,,,0.00,VWS V14.01,2013-03-07 03:41:00,
2013-03-06 19:46:00,36.7,8.2,29.64,East,101,0.0,0.0,30,0.00,,,0.00,VWS V14.01,2013-03-07 03:46:00,
2013-03-06 19:51:00,36.7,8.2,29.67,East,101,0.0,0.0,30,0.00,,,0.00,VWS V14.01,2013-03-07 03:51:00,
2013-03-06 19:57:00,36.7,8.2,29.67,East,101,0.0,0.0,30,0.00,,,0.00,VWS V14.01,2013-03-07 03:57:00,
2013-03-06 20:03:00,36.7,8.2,29.67,East,101,0.0,0.0,30,0.00,,,0.00,VWS V14.01,2013-03-07 04:03:00,
2013-03-06 20:08:00,36.7,8.2,29.67,East,101,0.0,0.0,30,0.00,,,0.00,VWS V14.01,2013-03-07 04:08:00,
2013-03-06 20:13:00,36.7,8.2,29.67,East,101,0.0,0.0,30,0.00,,,0.00,VWS V14.01,2013-03-07 04:13:00,
2013-03-06 20:19:00,36.7,8.2,29.67,East,101,0.0,0.0,30,0.00,,,0.00,VWS V14.01,2013-03-07 04:19:00,
2013-03-06 20:24:00,36.7,8.2,29.67,East,101,0.0,0.0,30,0.00,,,0.00,VWS V14.01,2013-03-07 04:24:00,
2013-03-06 20:30:00,36.7,8.2,29.67,East,101,0.0,0.0,30,0.00,,,0.00,VWS V14.01,2013-03-07 04:30:00,
2013-03-06 20:36:00,36.7,8.2,29.67,East,101,0.0,0.0,30,0.00,,,0.00,VWS V14.01,2013-03-07 04:36:00,
2013-03-06 20:41:00,36.7,8.2,29.70,East,101,0.0,0.0,30,0.00,,,0.00,VWS V14.01,2013-03-07 04:41:00,
2013-03-06 20:46:00,36.9,8.3,29.70,East,101,0.0,0.0,30,0.00,,,0.00,VWS V14.01,2013-03-07 04:46:00,
2013-03-06 20:52:00,36.9,8.3,29.70,East,101,0.0,0.0,30,0.00,,,0.00,VWS V14.01,2013-03-07 04:52:00,
2013-03-06 20:58:00,36.9,8.3,29.70,East,101,0.0,0.0,30,0.00,,,0.00,VWS V14.01,2013-03-07 04:58:00,
2013-03-06 21:00:00,36.9,8.3,29.70,East,101,0.0,0.0,30,0.00,,,0.00,VWS V14.01,2013-03-07 05:00:00,
2013-03-06 21:02:00,36.7,8.2,29.70,East,101,0.0,0.0,30,0.00,,,0.00,VWS V14.01,2013-03-07 05:02:00,
2013-03-06 21:08:00,36.9,8.3,29.70,East,101,0.0,0.0,30,0.00,,,0.00,VWS V14.01,2013-03-07 05:08:00,
2013-03-06 21:13:00,36.9,8.3,29.70,East,101,0.0,0.0,30,0.00,,,0.00,VWS V14.01,2013-03-07 05:13:00,
2013-03-06 21:17:00,36.9,8.3,29.70,East,101,0.0,0.0,30,0.00,,,0.00,VWS V14.01,2013-03-07 05:17:00,
2013-03-06 21:22:00,36.9,8.3,29.70,NNE,27,3.6,3.6,30,0.00,,,0.00,VWS V14.01,2013-03-07 05:22:00,
2013-03-06 21:27:00,37.2,8.6,29.70,NNE,27,0.0,0.0,30,0.00,,,0.00,VWS V14.01,2013-03-07 05:27:00,
2013-03-06 21:34:00,36.9,8.3,29.70,NNE,27,0.0,0.0,30,0.00,,,0.00,VWS V14.01,2013-03-07 05:34:00,
2013-03-06 21:40:00,36.9,8.3,29.70,NNE,27,0.0,0.0,30,0.00,,,0.00,VWS V14.01,2013-03-07 05:40:00,
2013-03-06 21:46:00,36.9,8.3,29.70,NNE,27,0.0,0.0,30,0.00,,,0.00,VWS V14.01,2013-03-07 05:46:00,
2013-03-06 21:52:00,36.9,8.3,29.73,NNE,27,0.0,0.0,30,0.00,,,0.00,VWS V14.01,2013-03-07 05:52:00,
2013-03-06 21:57:00,36.9,8.3,29.73,NNE,27,0.0,0.0,30,0.00,,,0.00,VWS V14.01,2013-03-07 05:57:00,
2013-03-06 22:02:00,36.9,8.3,29.73,NNE,27,0.0,0.0,30,0.00,,,0.00,VWS V14.01,2013-03-07 06:02:00,
2013-03-06 22:07:00,37.0,8.5,29.73,NNE,27,0.0,0.0,30,0.00,,,0.00,VWS V14.01,2013-03-07 06:07:00,
2013-03-06 22:12:00,37.2,8.6,29.73,NNE,27,0.0,0.0,30,0.00,,,0.00,VWS V14.01,2013-03-07 06:12:00,
2013-03-06 22:18:00,37.2,8.6,29.73,NNE,27,0.0,0.0,30,0.00,,,0.00,VWS V14.01,2013-03-07 06:18:00,
2013-03-06 22:24:00,37.6,8.2,29.73,NNE,27,0.0,0.0,29,0.00,,,0.00,VWS V14.01,2013-03-07 06:24:00,
2013-03-06 22:29:00,37.6,8.2,29.73,NNE,19,0.0,0.0,29,0.00,,,0.00,VWS V14.01,2013-03-07 06:29:00,
2013-03-06 22:35:00,37.8,8.4,29.73,NNE,19,0.0,0.0,29,0.00,,,0.00,VWS V14.01,2013-03-07 06:35:00,
2013-03-06 22:40:00,37.8,8.4,29.73,NNE,19,0.0,0.0,29,0.00,,,0.00,VWS V14.01,2013-03-07 06:40:00,
2013-03-06 22:46:00,37.4,8.1,29.73,NNE,19,0.0,0.0,29,0.00,,,0.00,VWS V14.01,2013-03-07 06:46:00,
2013-03-06 22:51:00,37.6,8.2,29.73,NNE,19,0.0,0.0,29,0.00,,,0.00,VWS V14.01,2013-03-07 06:51:00,
2013-03-06 22:56:00,37.6,8.2,29.73,NNE,19,0.0,0.0,29,0.00,,,0.00,VWS V14.01,2013-03-07 06:56:00,
2013-03-06 23:02:00,37.9,8.5,29.73,NNE,19,0.0,0.0,29,0.00,,,0.00,VWS V14.01,2013-03-07 07:02:00,
2013-03-06 23:08:00,37.9,8.5,29.76,NNE,19,0.0,0.0,29,0.00,,,0.00,VWS V14.01,2013-03-07 07:08:00,
2013-03-06 23:13:00,37.9,8.5,29.76,NNW,328,0.0,0.0,29,0.00,,,0.00,VWS V14.01,2013-03-07 07:13:00,
2013-03-06 23:18:00,37.9,8.5,29.76,NNW,328,0.0,0.0,29,0.00,,,0.00,VWS V14.01,2013-03-07 07:18:00,
2013-03-06 23:25:00,38.1,8.7,29.76,NW,310,0.0,0.0,29,0.00,,,0.00,VWS V14.01,2013-03-07 07:25:00,
2013-03-06 23:31:00,37.9,8.5,29.76,NW,306,2.2,2.2,29,0.00,,,0.00,VWS V14.01,2013-03-07 07:31:00,
2013-03-06 23:36:00,37.8,8.4,29.76,NW,306,2.2,2.2,29,0.00,,,0.00,VWS V14.01,2013-03-07 07:36:00,
2013-03-06 23:41:00,37.6,8.2,29.76,NNW,345,0.0,0.0,29,0.00,,,0.00,VWS V14.01,2013-03-07 07:41:00,
2013-03-06 23:47:00,37.4,8.1,29.76,NNW,345,0.0,0.0,29,0.00,,,0.00,VWS V14.01,2013-03-07 07:47:00,
2013-03-06 23:52:00,37.4,8.1,29.76,NW,311,0.0,0.0,29,0.00,,,0.00,VWS V14.01,2013-03-07 07:52:00,
2013-03-06 23:58:00,36.9,8.3,29.76,NW,311,0.0,0.0,30,0.00,,,0.00,VWS V14.01,2013-03-07 07:58:00,